Location: Walnut Point State Park
(39.6958°N, 88.0345°W)
Time: 20:49:47
(UTC-05:00)

Amateur Radio Satellites - All Passes

Search period start: 01 September 2014 20:19
Search period end: 02 September 2014 20:19
Location: Walnut Point State Park, 39.6958°N, 88.0345°W

Satellite Date Start Highest point End Downlink Frequencies (MHz)
Time Altitude Azimuth
STRAND 1 01 Sep 21:08:16 21:11:38 18° 297° (WNW) 21:15:00 ?
UKube-1 01 Sep 21:09:05 21:13:16 49° 72° (ENE) 21:17:28 145.840 MHz, 145.915 MHz
Oscar 11 01 Sep 21:13:14 21:17:06 33° 70° (ENE) 21:21:01 145.825 FM, Beacon 2401.500 USB
HO-68 01 Sep 21:35:19 21:42:18 56° 258° (WSW) 21:49:19 435.675 MHz FM
Saudisat 1A 01 Sep 21:43:05 21:47:07 37° 115° (ESE) 21:51:11 436.775 MHz
FUNcube-1 01 Sep 21:45:16 21:48:50 27° 69° (ENE) 21:52:28 145.950 - 145.970 MHz USB
MaSat-1 01 Sep 22:08:15 22:12:37 45° 59° (ENE) 22:16:22 437.345 MHz
AO-40 01 Sep 22:11:11 04:03:08 42° 162° (SSE) 05:44:36 Beacon 2401.320
KITSAT 1 01 Sep 22:25:44 22:33:00 39° 109° (ESE) 22:40:17 435.175 FM
UKube-1 01 Sep 22:47:28 22:49:44 14° 268° (W) 22:52:00 145.840 MHz, 145.915 MHz
Oscar 11 01 Sep 22:50:05 22:53:20 21° 266° (W) 22:56:37 145.825 FM, Beacon 2401.500 USB
FUNcube-1 01 Sep 23:21:51 23:25:12 23° 266° (W) 23:28:37 145.950 - 145.970 MHz USB
Saudisat 1A 01 Sep 23:23:09 23:26:47 24° 312° (NW) 23:30:26 436.775 MHz
MaSat-1 01 Sep 23:46:41 23:48:59 14° 261° (W) 23:51:08 437.345 MHz
PCSat 01 Sep 23:55:17 23:56:45 11° 38° (NE) 23:58:14 145.825 MHz
KITSAT 1 02 Sep 00:20:25 00:28:12 49° 308° (NW) 00:36:01 435.175 FM
Sapphire 02 Sep 01:07:00 01:11:53 33° 53° (NE) 01:16:45 437.095 MHz 1200 baud AX-25 AFSK
PCSat 02 Sep 01:35:57 01:41:20 60° 59° (ENE) 01:46:41 145.825 MHz
Oscar 19 02 Sep 01:40:23 01:44:43 26° 95° (E) 01:49:00 437.125 CW, 437.150 USB
AO-Echo 02 Sep 01:50:27 01:52:47 14° 91° (E) 01:55:06 ?
Oscar 16 02 Sep 02:15:07 02:20:16 59° 101° (E) 02:25:22 437.025 USB, Beacon 2401.1428
Oscar 10/S400 02 Sep 02:15:09 03:23:49 46° 224° (SW) 09:15:22 145.825 - 145.975 CW/USB, Beacon 145.810 USB
ITAMSAT 1 02 Sep 02:18:09 02:22:26 26° 95° (E) 02:26:42 435.822 SSB
KITSAT 1 02 Sep 02:21:37 02:25:52 15° 333° (NNW) 02:30:07 435.175 FM
SO-50 02 Sep 02:22:56 02:26:21 22° 111° (ESE) 02:29:51 436.795 FM
Uribyol 2 02 Sep 02:27:12 02:31:53 33° 97° (E) 02:36:33 436.500 FM
JAS-1B 02 Sep 02:33:14 02:39:02 34° 94° (E) 02:44:14 435.800 - 435.900 CW/SSB
TMSAT-1 02 Sep 02:41:09 02:43:47 14° 90° (E) 02:46:24 436.925 FM
AO-27 02 Sep 02:47:18 02:52:21 50° 100° (E) 02:57:22 436.795 MHz FM
Sapphire 02 Sep 02:50:24 02:55:17 35° 250° (WSW) 03:00:09 437.095 MHz 1200 baud AX-25 AFSK
OPAL 02 Sep 03:17:59 03:21:34 20° 61° (ENE) 03:25:11 ?
Oscar 19 02 Sep 03:19:22 03:24:05 36° 291° (WNW) 03:28:47 437.125 CW, 437.150 USB
PCSat 02 Sep 03:20:41 03:24:13 18° 255° (WSW) 03:27:45 145.825 MHz
AO-Echo 02 Sep 03:27:18 03:31:54 57° 287° (WNW) 03:36:32 ?
Gurwin Techsat 1B 02 Sep 03:28:58 03:34:12 56° 100° (E) 03:39:24 435.225 FM
Oscar 16 02 Sep 03:55:47 03:59:06 17° 297° (WNW) 04:02:26 437.025 USB, Beacon 2401.1428
ITAMSAT 1 02 Sep 03:57:15 04:01:59 37° 291° (WNW) 04:06:42 435.822 SSB
SO-50 02 Sep 04:02:28 04:06:39 39° 308° (NW) 04:10:57 436.795 FM
Uribyol 2 02 Sep 04:06:49 04:11:14 29° 293° (WNW) 04:15:39 436.500 FM
UOSAT-12 02 Sep 04:08:53 04:12:21 21° 111° (ESE) 04:15:52 437.025 FM, 437.400 FM
TMSAT-1 02 Sep 04:18:54 04:24:11 69° 286° (WNW) 04:29:26 436.925 FM
Uosat F 02 Sep 04:20:32 04:24:24 22° 94° (E) 04:28:14 435.120 FM
JAS-1B 02 Sep 04:23:52 04:29:41 33° 296° (WNW) 04:34:52 435.800 - 435.900 CW/SSB
AO-27 02 Sep 04:27:46 04:31:28 20° 296° (WNW) 04:35:11 436.795 MHz FM
AO-7 02 Sep 04:34:10 04:41:47 39° 99° (E) 04:49:20 29.400 - 29.500 MHz
OPAL 02 Sep 04:55:06 05:00:01 52° 258° (WSW) 05:05:03 ?
Gurwin Techsat 1B 02 Sep 05:10:06 05:13:42 19° 297° (WNW) 05:17:18 435.225 FM
JAS-2 02 Sep 05:31:35 05:33:53 13° 91° (E) 05:36:15 435.800 - 435.900 CW/SSB, 435.910 FM
UOSAT-12 02 Sep 05:47:48 05:52:12 42° 308° (NW) 05:56:41 437.025 FM, 437.400 FM
Uosat F 02 Sep 05:58:38 06:03:18 40° 290° (WNW) 06:07:57 435.120 FM
Saudisat 1A 02 Sep 06:10:35 06:14:18 26° 48° (NE) 06:18:00 436.775 MHz
KITSAT 1 02 Sep 06:19:37 06:25:17 20° 35° (NE) 06:30:56 435.175 FM
RS-15 02 Sep 06:23:57 06:33:34 36° 106° (ESE) 06:43:00 29.354 - 29.394 USB, Beacon 29.352 USB
AO-7 02 Sep 06:26:50 06:34:37 47° 297° (WNW) 06:42:22 29.400 - 29.500 MHz
STRAND 1 02 Sep 06:42:59 06:48:03 74° 74° (ENE) 06:53:09 ?
Hamsat 02 Sep 06:59:26 07:03:47 77° 284° (WNW) 07:08:04 145.90 MHz
JAS-2 02 Sep 07:14:08 07:19:25 74° 285° (WNW) 07:25:12 435.800 - 435.900 CW/SSB, 435.910 FM
SO-67 02 Sep 07:38:42 07:41:57 38° 98° (E) 07:45:11 435.3500 MHz FM
Saudisat 1A 02 Sep 07:49:55 07:53:56 34° 245° (WSW) 07:57:54 436.775 MHz
KITSAT 1 02 Sep 08:14:05 08:22:12 73° 58° (ENE) 08:30:14 435.175 FM
STRAND 1 02 Sep 08:25:50 08:27:45 12° 270° (W) 08:29:41 ?
RS-15 02 Sep 08:34:18 08:45:14 63° 307° (NW) 08:56:06 29.354 - 29.394 USB, Beacon 29.352 USB
ISS 02 Sep 08:46:37 08:49:08 20° 132° (SE) 08:51:39 145.800 FM
HO-68 02 Sep 09:04:14 09:10:22 30° 96° (E) 09:16:27 435.675 MHz FM
SO-67 02 Sep 09:13:25 09:14:38 12° 293° (WNW) 09:15:51 435.3500 MHz FM
KITSAT 1 02 Sep 10:10:48 10:16:47 23° 256° (WSW) 10:22:45 435.175 FM
ISS 02 Sep 10:22:28 10:25:40 43° 328° (NNW) 10:28:52 145.800 FM
PANSAT 02 Sep 10:30:47 10:31:17 10° 165° (SSE) 10:31:46 not established
UKube-1 02 Sep 10:34:02 10:38:24 78° 285° (WNW) 10:42:43 145.840 MHz, 145.915 MHz
Oscar 11 02 Sep 10:37:11 10:41:35 76° 102° (ESE) 10:45:55 145.825 FM, Beacon 2401.500 USB
HO-68 02 Sep 10:51:25 10:58:16 51° 293° (WNW) 11:05:07 435.675 MHz FM
RS-15 02 Sep 10:52:11 11:00:22 23° 336° (NNW) 11:08:35 29.354 - 29.394 USB, Beacon 29.352 USB
SO-50 02 Sep 10:54:37 10:58:14 21° 45° (NE) 11:01:53 436.795 FM
FUNcube-1 02 Sep 11:10:24 11:14:58 69° 101° (ESE) 11:19:33 145.950 - 145.970 MHz USB
MaSat-1 02 Sep 11:55:03 11:59:04 26° 104° (ESE) 12:03:16 437.345 MHz
ISS 02 Sep 12:01:22 12:03:04 13° 347° (NNW) 12:04:47 145.800 FM
PANSAT 02 Sep 12:08:24 12:10:44 15° 178° (S) 12:13:04 not established
Oscar 11 02 Sep 12:16:35 12:17:07 10° 298° (WNW) 12:17:38 145.825 FM, Beacon 2401.500 USB
SO-50 02 Sep 12:34:25 12:39:07 55° 242° (WSW) 12:43:51 436.795 FM
UOSAT-12 02 Sep 12:38:46 12:42:06 19° 43° (NE) 12:45:25 437.025 FM, 437.400 FM
FUNcube-1 02 Sep 12:48:57 12:50:46 12° 297° (WNW) 12:52:36 145.950 - 145.970 MHz USB
Oscar 19 02 Sep 12:56:23 13:01:03 35° 69° (ENE) 13:05:44 437.125 CW, 437.150 USB
AO-Echo 02 Sep 13:02:26 13:05:50 19° 65° (ENE) 13:09:09 ?
RS-15 02 Sep 13:11:07 13:18:26 19° 13° (NNE) 13:25:52 29.354 - 29.394 USB, Beacon 29.352 USB
JAS-1B 02 Sep 13:14:07 13:22:42 39° 65° (ENE) 13:30:24 435.800 - 435.900 CW/SSB
Gurwin Techsat 1B 02 Sep 13:14:33 13:15:27 10° 58° (ENE) 13:16:22 435.225 FM
Oscar 16 02 Sep 13:31:12 13:36:21 79° 75° (ENE) 13:41:33 437.025 USB, Beacon 2401.1428
MaSat-1 02 Sep 13:31:12 13:35:51 39° 302° (WNW) 13:40:41 437.345 MHz
ITAMSAT 1 02 Sep 13:35:21 13:40:02 36° 69° (ENE) 13:44:43 435.822 SSB
ISS 02 Sep 13:39:46 13:40:58 12° 8° (N) 13:42:10 145.800 FM
Uribyol 2 02 Sep 13:44:16 13:49:10 46° 71° (ENE) 13:54:06 436.500 FM
AO-7 02 Sep 13:47:47 13:49:10 11° 43° (NE) 13:50:34 29.400 - 29.500 MHz
PANSAT 02 Sep 13:48:33 13:50:12 12° 191° (S) 13:51:51 not established
TMSAT-1 02 Sep 14:00:45 14:04:39 21° 64° (ENE) 14:08:33 436.925 FM
AO-27 02 Sep 14:04:38 14:09:46 70° 74° (ENE) 14:14:56 436.795 MHz FM
UOSAT-12 02 Sep 14:18:00 14:22:41 62° 242° (WSW) 14:27:15 437.025 FM, 437.400 FM
Oscar 19 02 Sep 14:36:05 14:40:24 27° 265° (W) 14:44:46 437.125 CW, 437.150 USB
AO-Echo 02 Sep 14:39:24 14:44:15 49° 260° (W) 14:48:59 ?
Gurwin Techsat 1B 02 Sep 14:49:14 14:54:32 81° 75° (ENE) 14:59:52 435.225 FM
JAS-1B 02 Sep 15:03:22 15:12:53 55° 260° (W) 15:21:27 435.800 - 435.900 CW/SSB
Oscar 16 02 Sep 15:14:38 15:16:16 11° 271° (W) 15:17:55 437.025 USB, Beacon 2401.1428
ITAMSAT 1 02 Sep 15:15:17 15:19:34 26° 265° (W) 15:23:51 435.822 SSB
ISS 02 Sep 15:15:39 15:18:34 28° 27° (NNE) 15:21:29 145.800 FM
RS-15 02 Sep 15:24:14 15:34:44 45° 45° (NE) 15:45:32 29.354 - 29.394 USB, Beacon 29.352 USB
Uribyol 2 02 Sep 15:25:09 15:28:52 20° 267° (W) 15:32:36 436.500 FM
AO-7 02 Sep 15:32:04 15:39:58 50° 64° (ENE) 15:47:52 29.400 - 29.500 MHz
Uosat F 02 Sep 15:33:00 15:37:16 29° 67° (ENE) 15:41:33 435.120 FM
TMSAT-1 02 Sep 15:39:07 15:44:12 48° 261° (W) 15:49:19 436.925 FM
AO-27 02 Sep 15:47:25 15:49:46 13° 270° (W) 15:52:07 436.795 MHz FM
Sapphire 02 Sep 15:48:12 15:53:00 34° 110° (ESE) 15:57:49 437.095 MHz 1200 baud AX-25 AFSK
PCSat 02 Sep 16:16:40 16:22:00 66° 115° (ESE) 16:27:23 145.825 MHz
Gurwin Techsat 1B 02 Sep 16:33:23 16:35:06 11° 271° (W) 16:36:48 435.225 FM
ISS 02 Sep 16:52:15 16:55:21 37° 224° (SW) 16:58:26 145.800 FM
OPAL 02 Sep 17:05:43 17:10:43 44° 101° (E) 17:15:39 ?
Uosat F 02 Sep 17:11:33 17:15:58 31° 263° (W) 17:20:24 435.120 FM
AO-7 02 Sep 17:25:23 17:32:52 37° 262° (W) 17:40:24 29.400 - 29.500 MHz
JAS-2 02 Sep 17:25:47 17:31:21 41° 71° (ENE) 17:36:26 435.800 - 435.900 CW/SSB, 435.910 FM
Sapphire 02 Sep 17:31:29 17:36:22 34° 307° (NW) 17:41:17 437.095 MHz 1200 baud AX-25 AFSK
RS-15 02 Sep 17:36:39 17:47:22 57° 248° (WSW) 17:58:33 29.354 - 29.394 USB, Beacon 29.352 USB
Hamsat 02 Sep 17:51:34 17:55:51 67° 75° (ENE) 18:00:11 145.90 MHz
PCSat 02 Sep 18:01:59 18:05:54 20° 314° (NW) 18:09:51 145.825 MHz
SO-67 02 Sep 18:12:41 18:14:10 12° 67° (ENE) 18:15:39 435.3500 MHz FM
OPAL 02 Sep 18:45:14 18:49:17 23° 297° (WNW) 18:53:20 ?
STRAND 1 02 Sep 18:54:59 18:59:15 26° 95° (E) 19:03:29 ?
JAS-2 02 Sep 19:11:37 19:16:32 26° 264° (W) 19:21:05 435.800 - 435.900 CW/SSB, 435.910 FM
HO-68 02 Sep 19:33:14 19:38:23 22° 58° (ENE) 19:43:31 435.675 MHz FM
SO-67 02 Sep 19:43:40 19:46:52 35° 262° (W) 19:50:06 435.3500 MHz FM
